Lufkin, TX

6:00 PM CDT on July 27, 2017 (GMT -0500)
Angelina County

Weather History for KLFK - August, 2012

Change the Weather History Date:

Tuesday, August 7, 2012

  Actual Average Record
Temperature  
Mean Temperature 88 °F 83 °F  
Max Temperature 101 °F 95 °F 105 °F (1962)
Min Temperature 74 °F 72 °F 62 °F (1920)
Degree Days  
Heating Degree Days 0 0  
Month to date heating degree days 0 0  
Since 1 June heating degree days 0 0  
Since 1 July heating degree days 0 0  
Cooling Degree Days 23 18  
Month to date cooling degree days 159 126  
Year to date cooling degree days 2036 1597  
Since 1 June cooling degree days 1261 1128  
Growing Degree Days 36 (Base 50)    
Moisture  
Dew Point 72 °F    
Average Humidity 65    
Maximum Humidity 93    
Minimum Humidity 37    
Precipitation  
Precipitation 0.49 in 0.11 in 1.08 in (1970)
Month to date precipitation 0.49 0.69  
Year to date precipitation 28.69 27.94  
Snow  
Snow 0.00 in - - ()
Month to date snowfall 0.0  
Since 1 June snowfall 0.0  
Since 1 July snowfall 0.0  
Snow Depth 0.00 in    
Sea Level Pressure  
Sea Level Pressure 29.93 in    
Wind  
Wind Speed 3 mph (SE)    
Max Wind Speed 35 mph    
Max Gust Speed 43 mph    
Visibility 9 miles    
Events Rain    
T = Trace of Precipitation, MM = Missing Value Source: NWS Daily Summary

Daily Weather History Graph

Daily Weather History Graph

Search for Another Location

Airport or City:

Trip Planner

Search our weather history database for the weather conditions in past years. The results will help you decide how hot, cold, wet, or windy it might be!

Date:

Astronomy

Aug. 07, 2012 Rise Set
Actual Time 6:39 AM CDT 8:09 PM CDT
Civil Twilight 6:13 AM CDT 8:34 PM CDT
Nautical Twilight 5:42 AM CDT 9:05 PM CDT
Astronomical Twilight 5:10 AM CDT 9:38 PM CDT
Moon 11:19 PM CDT (8/7) 12:00 PM CDT (8/7)
Length of Visible Light 14h 20m
Length of Day
13h 29m
Waning Gibbous, 69% of the Moon is Illuminated
Aug 7
Waning Gibbous
Aug 9
Last Quarter
Aug 17
New
Aug 24
First Quarter
Aug 31
Full

Hourly Weather History & Observations

Time (CDT) Temp. Heat Index Dew Point Humidity Pressure Visibility Wind Dir Wind Speed Gust Speed Precip Events Conditions
12:53 AM 80.1 °F 83.6 °F 71.1 °F 74% 29.96 in 10.0 mi South 3.5 mph - N/A   Clear
1:53 AM 80.1 °F 83.6 °F 71.1 °F 74% 29.95 in 10.0 mi Calm Calm - N/A   Clear
2:53 AM 78.1 °F - 71.1 °F 79% 29.93 in 10.0 mi Calm Calm - N/A   Clear
3:53 AM 78.1 °F - 71.1 °F 79% 29.94 in 10.0 mi Calm Calm - N/A   Clear
4:53 AM 75.9 °F - 71.1 °F 85% 29.94 in 10.0 mi Calm Calm - N/A   Clear
5:53 AM 73.9 °F - 71.1 °F 91% 29.95 in 10.0 mi Calm Calm - N/A   Clear
6:53 AM 73.9 °F - 71.1 °F 91% 29.96 in 9.0 mi Calm Calm - N/A   Clear
7:53 AM 78.1 °F - 72.0 °F 81% 29.98 in 10.0 mi Calm Calm - N/A   Unknown
8:53 AM 84.9 °F 90.7 °F 72.0 °F 65% 29.98 in 10.0 mi West 5.8 mph - N/A   Clear
9:53 AM 89.1 °F 97.0 °F 73.0 °F 59% 29.99 in 10.0 mi Variable 4.6 mph - N/A   Clear
10:53 AM 93.2 °F 100.5 °F 71.6 °F 49% 30.00 in 10.0 mi Calm Calm - N/A   Clear
11:53 AM 95.0 °F 102.5 °F 71.1 °F 46% 29.97 in 10.0 mi NE 4.6 mph - N/A   Clear
12:53 PM 98.1 °F 105.0 °F 70.0 °F 40% 29.96 in 10.0 mi Variable 3.5 mph - N/A   Scattered Clouds
1:53 PM 98.1 °F 104.4 °F 69.1 °F 39% 29.93 in 10.0 mi East 3.5 mph - N/A   Overcast
2:53 PM 97.0 °F 103.5 °F 70.0 °F 41% 29.91 in 10.0 mi ENE 6.9 mph - N/A   Scattered Clouds
3:53 PM 98.1 °F 103.0 °F 68.0 °F 37% 29.89 in 10.0 mi Calm Calm - N/A   Mostly Cloudy
4:53 PM 100.0 °F 107.8 °F 70.0 °F 38% 29.88 in 10.0 mi Variable 5.8 mph - N/A   Partly Cloudy
5:53 PM 93.9 °F 103.4 °F 73.0 °F 51% 29.87 in 10.0 mi South 8.1 mph - 0.01 in   Mostly Cloudy
6:53 PM 95.0 °F 104.5 °F 73.0 °F 49% 29.88 in 10.0 mi SE 10.4 mph - N/A   Partly Cloudy
7:44 PM 80.6 °F 84.6 °F 71.6 °F 74% 29.92 in 1.2 mi North 34.5 mph 42.6 mph 0.15 in Rain Heavy Rain
7:53 PM 82.9 °F 87.0 °F 70.0 °F 65% 29.89 in 0.5 mi West 12.7 mph 41.4 mph 0.46 in Rain Heavy Rain
8:00 PM 82.4 °F 86.3 °F 69.8 °F 66% 29.91 in 2.0 mi SSW 4.6 mph 16.1 mph 0.01 in Rain Light Rain
8:07 PM 80.6 °F 84.6 °F 71.6 °F 74% 29.91 in 7.0 mi Variable 4.6 mph - 0.02 in Rain Light Rain
8:53 PM 80.1 °F 85.1 °F 75.0 °F 85% 29.90 in 10.0 mi East 3.5 mph - 0.02 in   Mostly Cloudy
9:53 PM 82.0 °F 89.4 °F 75.9 °F 82% 29.91 in 10.0 mi Calm Calm - N/A   Partly Cloudy
10:53 PM 82.9 °F 90.8 °F 75.9 °F 79% 29.92 in 10.0 mi Calm Calm - N/A   Clear
11:53 PM 80.6 °F 86.2 °F 75.2 °F 84% 29.95 in 10.0 mi Calm Calm - N/A   Clear